Вернуться в каталог

NOAA 16 DEB

АктивенPO
NORAD 41160·DEBRIS·🇺🇸 United States

Запущен Sep 21, 2000 с Vandenberg Space Force Base

Loading…

Ближайшие Пролёты (ближайшие 24 часа)

TLE

СвежийSource: Space-Track

Эпоха: Sep 14, 2026, 02:55 UTC

1 41160U 00055CT  26257.12186682  .00011631  00000-0  27215-2 0  9999
2 41160  98.8360  18.3067 0014789 206.0749 153.9703 14.54707240558358

Отслеживайте NOAA 16 DEB в реальном времени с AllMySat

Download on the App Store